If you wish to contribute or participate in the discussions about articles you are invited to join SKYbrary as a registered user

 Actions

Accra/Kotoka

From SKYbrary Wiki

DGAA
Airport
ICAO: DGAA
Summary
Name Accra/Kotoka
Region Africa
Territory Ghana GH.gif
Location Accra
Serving
Coordinates 5° 36' 17.34" N, 0° 10' 2.42" W
Runways
Designator Length Width Surface ROPS
3/21 3403 m11,164.698 ft <br /> 61 m200.131 ft <br /> ASP yes/yes


METAR
Observation DGAA 242000Z 24005KT CAVOK 27/24 Q1012 NOSIG
Station Accra
Date/Time 24 June 2021 20:00:00
Wind direction 240°
Wind speed 05 kts
Lowest cloud amount clouds and visibility OK
Temperature 27°C
Dew point 24°C
Humidity 83%
QNH 1012 hPa
Weather condition n/a


Accra/Kotoka Airport

ICAO: DGAA IATA: ACC

Description

International airport serving the capital of Ghana.

Climatology

Tropical Savanna climate (Köppen climate classification Aw)

Maps

Terrain

Loading map...

Airport Layout

Loading map...


Accidents & Serious Incidents at or in vicinity of DGAA

None on SKYbrary